Find Starlink 36900

NORAD ID: 67973 Int'l Des: 2026-038 Owner: SPXS Country: US Constellation: starlink operational
LEOCIRCULARRETROGRADE

实时位置

正在加载3D地球...

关于 Starlink 36900

正在加载描述...

即将过境

Passes for default location (London). Set your location on the main map for personalized predictions.

高度历史

Loading altitude history...

两行轨道根数

1 67973U 26038N 26106.75851347 .00014510 00000-0 43902-3 0 9998
2 67973 97.2840 117.3300 0001396 102.8385 257.3014 15.34293645 9075
Epoch: Apr 16, 2026 • Age: 18 hours

当前状态

高度 465.3 km
速度 7.64 km/s
星下点 22.50°N, 86.13°W
发射日期 Feb 25, 2026
运行时间 0.1 years
类型 internet

技术详情

分类 Payload
质量 575.00 kg
干质量 530.00 kg
总质量 575.00 kg
长度 0.30 m
直径 4.10 m
跨度 29.00 m
形状 Box + pan
制造商 SPXS
平台类型 Starlink V2MO
阶段状态 In Orbit
所有者/国家 SPXS/US

Most Searched